Regional Weather Roundup
Issued by NWS

Home | Current Version | Previous Version | Text Only | Print | Product List | Glossary Off
Versions: 1 2 3 4 5 6 7 8 9 10 11 12 13 14 15 16 17 18 19 20 21 22 23 24 25 26 27 28 29 30 31 32 33 34 35 36 37 38 39 40 41 42 43 44 45 46 47 48 49 50

389
ASUS43 KLSX 061757
RWRMO

WEATHER SUMMARY FOR MISSOURI
NATIONAL WEATHER SERVICE SPRINGFIELD MO
1200 PM CST SAT FEB 06 2016

NOTE: "FAIR" INDICATES FEW OR NO CLOUDS BELOW 12,000 FEET WITH NO
       SIGNIFICANT WEATHER AND/OR OBSTRUCTIONS TO VISIBILITY.
       CURRENT SKY AND/OR WEATHER CONDITIONS ARE NOT AVAILABLE FOR
       CHILLICOTHE AND FARMINGTON.

MOZ001>031-035>038-043-044-053-054-061900-
...NORTHERN AND WESTERN MISSOURI...

CITY           SKY/WX    TMP DP  RH WIND       PRES   REMARKS
KANSAS CTY INT MOSUNNY   43  32  65 SW7       30.28F
6HR MIN TEMP:  26; 6HR MAX TEMP:  43;

LEE`S SUMMIT   SUNNY     44  30  57 W6        30.29F
6HR MIN TEMP:  27; 6HR MAX TEMP:  45;

ST JOSEPH      SUNNY     41  31  67 SW7       30.28F
6HR MIN TEMP:  21; 6HR MAX TEMP:  41;

CHILLICOTHE      N/A     43  31  62 W6        30.28F
6HR MIN TEMP:  24; 6HR MAX TEMP:  44;


$$
MOZ066>068-077>081-088>096-101>105-061900-
...SOUTHWEST MISSOURI...

CITY           SKY/WX    TMP DP  RH WIND       PRES   REMARKS
SPRINGFIELD    SUNNY     50  29  44 W8        30.30F
6HR MIN TEMP:  26; 6HR MAX TEMP:  50;

JOPLIN         SUNNY     51  31  46 SW10      30.33F
6HR MIN TEMP:  33; 6HR MAX TEMP:  51;


$$
MOZ032>034-039>042-045>050-055>058-069>072-061900-
...CENTRAL MISSOURI...

CITY           SKY/WX    TMP DP  RH WIND       PRES   REMARKS
COLUMBIA       NOT AVBL
JEFFERSON CITY SUNNY     48  27  44 VRB3      30.29F
6HR MIN TEMP:  24; 6HR MAX TEMP:  49;

SEDALIA        SUNNY     49  27  42 SW7       30.29F
6HR MIN TEMP:  34; 6HR MAX TEMP:  49;


$$
MOZ051-052-059>065-061900-
...EAST CENTRAL MISSOURI...

CITY           SKY/WX    TMP DP  RH WIND       PRES   REMARKS
ST LOUIS INTL  SUNNY     51  25  36 SW7       30.28F
6HR MIN TEMP:  28; 6HR MAX TEMP:  51;


$$
MOZ072>076-082>087-097>100-106>115-061900-
...SOUTH CENTRAL AND SOUTHEAST MISSOURI...

CITY           SKY/WX    TMP DP  RH WIND       PRES   REMARKS
CAPE GIRARDEAU SUNNY     51  23  33 SW6       30.33F
6HR MIN TEMP:  24; 6HR MAX TEMP:  51;

POPLAR BLUFF   SUNNY     51  26  37 SW7       30.33F
6HR MIN TEMP:  24; 6HR MAX TEMP:  51;

WEST PLAINS    SUNNY     51  20  29 VRB6      30.32F
6HR MIN TEMP:  31; 6HR MAX TEMP:  52;


$$



USA.gov is the U.S. government's official web portal to all federal, state and local government web resources and services.